EW3393 Weather Reports


time (UTC)temp
F
wind
direction
speed
knots
gust
knots
rain 1hr
in
rain 24hr
in
rain mn
in
humidity
%
barometer
mb
20260507101816 67 321 7.0 8.7 0.00 0.00 0.00 43 1012.9
20260507101348 67 336 6.1 8.7 0.00 0.00 0.00 43 1012.9
20260507100840 67 331 6.1 8.7 0.00 0.00 0.00 42 1012.9
20260507100314 67 315 6.1 9.6 0.00 0.00 0.00 42 1012.9
20260507095845 67 312 7.0 9.6 0.00 0.00 0.00 42 1012.9
20260507095314 68 313 7.0 10.4 0.00 0.00 0.00 42 1012.9
20260507094827 68 274 8.7 10.4 0.00 0.00 0.00 42 1012.9
20260507094318 68 300 7.8 9.6 0.00 0.00 0.00 42 1012.9
20260507093830 68 276 7.0 8.7 0.00 0.00 0.00 42 1012.9
20260507093342 68 292 7.0 8.7 0.00 0.00 0.00 43 1012.9
20260507092813 67 281 7.8 9.6 0.00 0.00 0.00 43 1012.9
20260507092324 67 288 7.8 9.6 0.00 0.00 0.00 44 1013.0
20260507091821 67 288 7.8 9.6 0.00 0.00 0.00 45 1013.0
20260507091312 67 278 7.8 9.6 0.00 0.00 0.00 46 1013.0
20260507090846 67 287 7.8 8.7 0.00 0.00 0.00 47 1013.1
20260507090314 67 284 7.8 8.7 0.00 0.00 0.00 47 1013.2
20260507085823 67 291 7.0 8.7 0.00 0.00 0.00 48 1013.2
20260507085313 67 279 7.0 8.7 0.00 0.00 0.00 48 1013.3
20260507084825 67 271 7.8 8.7 0.00 0.00 0.00 47 1013.3
20260507084317 67 267 7.0 8.7 0.00 0.00 0.00 47 1013.3
20260507083829 67 245 7.8 8.7 0.00 0.00 0.00 47 1013.3
20260507083321 67 254 6.1 7.8 0.00 0.00 0.00 46 1013.4
20260507082816 67 274 6.1 7.8 0.00 0.00 0.00 46 1013.3
20260507082347 67 271 6.1 7.8 0.00 0.00 0.00 47 1013.4
20260507081818 67 285 7.0 7.8 0.00 0.00 0.00 48 1013.4
20260507081328 67 295 6.1 7.0 0.00 0.00 0.00 48 1013.4
20260507080842 67 296 4.3 8.7 0.00 0.00 0.00 47 1013.6
20260507080312 68 296 7.0 8.7 0.00 0.00 0.00 48 1013.7
20260507075822 68 284 7.8 8.7 0.00 0.00 0.00 48 1013.6
20260507075313 68 303 7.0 8.7 0.00 0.00 0.00 50 1013.6
20260507074827 68 295 7.0 8.7 0.00 0.00 0.00 50 1013.7
20260507074317 68 318 7.0 9.6 0.00 0.00 0.00 49 1013.7
20260507073814 68 300 7.0 9.6 0.00 0.00 0.00 49 1013.8
20260507073324 68 288 7.8 9.6 0.00 0.00 0.00 49 1013.7
20260507072836 68 317 7.0 8.7 0.00 0.00 0.00 49 1013.8
20260507072326 67 302 7.8 8.7 0.00 0.00 0.00 50 1013.9
20260507071837 67 309 7.0 7.8 0.00 0.00 0.00 50 1013.9
20260507071328 68 319 5.2 7.8 0.00 0.00 0.00 50 1013.9
20260507070820 68 313 4.3 5.2 0.00 0.00 0.00 49 1014.0
20260507070330 68 272 5.2 7.0 0.00 0.00 0.00 49 1014.0
20260507065820 69 263 6.1 7.0 0.00 0.00 0.00 49 1014.0
20260507065330 69 270 5.2 6.1 0.00 0.00 0.00 48 1014.0
20260507064822 69 262 2.6 7.0 0.00 0.00 0.00 47 1014.2
20260507064318 70 257 5.2 8.7 0.00 0.00 0.00 47 1014.2
20260507063830 70 251 7.0 8.7 0.00 0.00 0.00 47 1014.2
20260507063321 70 260 6.1 9.6 0.00 0.00 0.00 46 1014.2
20260507062813 71 263 7.8 10.4 0.00 0.00 0.00 45 1014.3
20260507062324 71 275 8.7 13.9 0.00 0.00 0.00 45 1014.2
20260507061815 71 269 9.6 13.9 0.00 0.00 0.00 45 1014.2
20260507061324 71 294 7.8 11.3 0.00 0.00 0.00 44 1014.2
20260507060816 72 281 8.7 11.3 0.00 0.00 0.00 44 1014.3
20260507060327 72 302 8.7 14.8 0.00 0.00 0.00 44 1014.3
20260507055820 72 304 10.4 14.8 0.00 0.00 0.00 44 1014.4
20260507055313 72 297 9.6 13.0 0.00 0.00 0.00 44 1014.4
20260507054826 72 299 10.4 14.8 0.00 0.00 0.00 44 1014.4
20260507054318 72 290 9.6 14.8 0.00 0.00 0.00 44 1014.4
20260507053850 72 303 11.3 15.6 0.00 0.00 0.00 44 1014.5
20260507053319 72 311 11.3 15.6 0.00 0.00 0.00 45 1014.4
20260507052831 72 300 11.3 18.2 0.00 0.00 0.00 45 1014.4
20260507052322 72 298 12.2 18.2 0.00 0.00 0.00 45 1014.4
20260507051818 72 304 12.2 20.0 0.00 0.00 0.00 45 1014.4
20260507051328 73 287 13.0 18.2 0.00 0.00 0.00 45 1014.3
20260507050821 73 302 14.8 17.4 0.00 0.00 0.00 44 1014.3
20260507050331 73 296 12.2 17.4 0.00 0.00 0.00 44 1014.3
20260507045839 73 321 12.2 17.4 0.00 0.00 0.00 43 1014.4
20260507045349 73 297 12.2 15.6 0.00 0.00 0.00 43 1014.3
20260507044822 74 302 11.3 18.2 0.00 0.00 0.00 42 1014.4
20260507044313 74 295 12.2 17.4 0.00 0.00 0.00 42 1014.3
20260507043827 74 288 11.3 17.4 0.00 0.00 0.00 41 1014.3
20260507043318 74 277 13.0 17.4 0.00 0.00 0.00 40 1014.2
20260507042833 74 270 13.9 17.4 0.00 0.00 0.00 40 1014.2
20260507042325 75 292 12.2 17.4 0.00 0.00 0.00 39 1014.1
20260507041818 75 261 13.0 17.4 0.00 0.00 0.00 39 1014.1
20260507041329 75 257 12.2 15.6 0.00 0.00 0.00 38 1014.1
20260507040821 76 277 12.2 15.6 0.00 0.00 0.00 38 1014.0
20260507040330 76 258 9.6 13.0 0.00 0.00 0.00 36 1014.0
20260507035820 76 276 8.7 13.0 0.00 0.00 0.00 35 1014.0
20260507035331 76 275 10.4 15.6 0.00 0.00 0.00 35 1013.9
20260507034822 77 288 12.2 15.6 0.00 0.00 0.00 34 1013.9
20260507034353 77 282 9.6 13.0 0.00 0.00 0.00 33 1013.8
20260507033828 77 277 9.6 13.0 0.00 0.00 0.00 33 1013.7
20260507033319 77 277 7.8 10.4 0.00 0.00 0.00 32 1013.6
20260507032812 77 270 7.0 11.3 0.00 0.00 0.00 31 1013.6
20260507032344 77 287 8.7 11.3 0.00 0.00 0.00 31 1013.5
20260507031814 78 265 7.8 10.4 0.00 0.00 0.00 31 1013.4
20260507031325 78 261 5.2 9.6 0.00 0.00 0.00 30 1013.4
20260507030817 78 300 6.1 13.0 0.00 0.00 0.00 30 1013.3
20260507030327 78 269 8.7 13.0 0.00 0.00 0.00 30 1013.2
20260507025837 78 267 7.8 11.3 0.00 0.00 0.00 29 1013.2
20260507025347 79 273 7.0 12.2 0.00 0.00 0.00 29 1013.1
20260507024822 79 242 7.8 11.3 0.00 0.00 0.00 29 1013.0
20260507024313 79 261 8.7 11.3 0.00 0.00 0.00 29 1012.9
20260507023825 79 263 9.6 13.9 0.00 0.00 0.00 29 1012.8
20260507023335 80 260 11.3 13.9 0.00 0.00 0.00 29 1012.7
20260507022847 80 297 9.6 13.9 0.00 0.00 0.00 28 1012.7
20260507022317 80 273 7.0 11.3 0.00 0.00 0.00 28 1012.7
20260507021850 81 246 7.8 12.2 0.00 0.00 0.00 28 1012.6
20260507021321 81 263 9.6 13.9 0.00 0.00 0.00 27 1012.6
20260507020814 82 246 7.8 13.9 0.00 0.00 0.00 27 1012.5
20260507020325 82 251 10.4 13.9 0.00 0.00 0.00 27 1012.5
20260507015836 82 252 7.8 14.8 0.00 0.00 0.00 26 1012.5
20260507015329 83 196 9.6 14.8 0.00 0.00 0.00 22 1012.4
20260507014820 84 259 9.6 13.0 0.00 0.00 0.00 25 1012.4
20260507014330 85 248 3.5 7.8 0.00 0.00 0.00 22 1012.3
20260507013823 85 180 3.5 4.3 0.00 0.00 0.00 20 1012.3
20260507013313 85 180 2.6 4.3 0.00 0.00 0.00 20 1012.2
20260507012826 85 150 0.9 7.0 0.00 0.00 0.00 20 1012.1
20260507012316 86 167 2.6 7.0 0.00 0.00 0.00 20 1012.1
20260507011830 86 138 4.3 7.0 0.00 0.00 0.00 20 1012.1
20260507011322 86 145 0.9 3.5 0.00 0.00 0.00 20 1012.1
20260507010819 86 180 1.7 3.5 0.00 0.00 0.00 19 1012.0
20260507010331 86 159 1.7 5.2 0.00 0.00 0.00 20 1012.0
20260507005821 86 178 2.6 6.1 0.00 0.00 0.00 20 1012.1
20260507005332 86 160 2.6 6.1 0.00 0.00 0.00 19 1012.0
20260507004845 86 199 4.3 6.1 0.00 0.00 0.00 19 1012.0
20260507004314 86 178 4.3 7.0 0.00 0.00 0.00 19 1012.0
20260507003826 86 205 3.5 7.0 0.00 0.00 0.00 20 1012.0
20260507003318 86 194 1.7 7.0 0.00 0.00 0.00 19 1012.0
20260507002815 86 188 4.3 11.3 0.00 0.00 0.00 20 1012.0
20260507002326 86 182 4.3 11.3 0.00 0.00 0.00 20 1012.0
20260507001818 86 146 4.3 6.1 0.00 0.00 0.00 19 1011.9
20260507001329 86 172 4.3 6.1 0.00 0.00 0.00 20 1011.9
20260507000823 86 205 2.6 8.7 0.00 0.00 0.00 19 1011.9
20260507000314 86 162 5.2 8.7 0.00 0.00 0.00 19 1011.8
20260506235823 85 192 3.5 9.6 0.00 0.00 0.00 20 1011.8
20260506235353 86 99 6.1 9.6 0.00 0.00 0.00 19 1011.8
20260506234825 86 139 2.6 6.1 0.00 0.00 0.00 19 1011.8
20260506234336 86 127 1.7 7.8 0.00 0.00 0.00 19 1011.8
20260506233813 85 140 5.2 7.8 0.00 0.00 0.00 19 1011.8
20260506233345 85 65 2.6 7.8 0.00 0.00 0.00 19 1011.9
20260506232817 86 91 4.3 7.8 0.00 0.00 0.00 18 1012.0
20260506232329 86 53 1.7 7.8 0.00 0.00 0.00 18 1012.0
20260506231820 86 126 4.3 7.8 0.00 0.00 0.00 18 1012.0
20260506231331 86 126 2.6 6.1 0.00 0.00 0.00 18 1012.0
20260506230824 86 153 2.6 7.8 0.00 0.00 0.00 19 1012.1
20260506230335 86 74 2.6 7.8 0.00 0.00 0.00 18 1012.2
20260506225822 86 104 2.6 7.0 0.00 0.00 0.00 18 1012.1
20260506225331 86 192 1.7 7.0 0.00 0.00 0.00 18 1012.2
20260506224827 86 126 4.3 9.6 0.00 0.00 0.00 18 1012.3
20260506224319 87 175 5.2 9.6 0.00 0.00 0.00 19 1012.3
20260506223830 87 94 3.5 8.7 0.00 0.00 0.00 18 1012.4
20260506223321 87 136 2.6 8.7 0.00 0.00 0.00 18 1012.4
20260506222813 86 198 4.3 8.7 0.00 0.00 0.00 18 1012.5
20260506222325 86 84 3.5 7.8 0.00 0.00 0.00 19 1012.5
20260506221816 85 195 0.9 7.8 0.00 0.00 0.00 19 1012.6
20260506221326 85 190 1.7 7.8 0.00 0.00 0.00 19 1012.7
20260506220819 85 173 5.2 8.7 0.00 0.00 0.00 19 1012.8
20260506220315 85 179 6.1 8.7 0.00 0.00 0.00 20 1012.8
20260506215826 85 184 5.2 18.2 0.00 0.00 0.00 20 1013.0
20260506215317 85 136 5.2 18.2 0.00 0.00 0.00 19 1012.9
20260506214829 85 179 5.2 11.3 0.00 0.00 0.00 20 1013.0
20260506214319 84 183 6.1 11.3 0.00 0.00 0.00 20 1013.2
20260506213832 84 148 7.8 13.0 0.00 0.00 0.00 20 1013.2
20260506213323 84 243 3.5 7.8 0.00 0.00 0.00 20 1013.3
20260506212816 85 254 5.2 7.8 0.00 0.00 0.00 19 1013.4
20260506212330 85 154 3.5 7.8 0.00 0.00 0.00 20 1013.5
20260506211823 84 172 5.2 8.7 0.00 0.00 0.00 20 1013.4
20260506211314 84 200 2.6 7.8 0.00 0.00 0.00 20 1013.5
20260506210846 84 179 4.3 7.8 0.00 0.00 0.00 21 1013.6
20260506210315 83 227 6.1 9.6 0.00 0.00 0.00 20 1013.6
20260506205825 83 201 6.1 9.6 0.00 0.00 0.00 21 1013.7
20260506205316 84 117 3.5 9.6 0.00 0.00 0.00 20 1013.7
20260506204828 83 132 5.2 9.6 0.00 0.00 0.00 21 1013.8
20260506204319 83 145 3.5 7.8 0.00 0.00 0.00 21 1013.9
20260506203836 83 252 1.7 6.1 0.00 0.00 0.00 21 1014.0
20260506203326 82 215 4.3 7.8 0.00 0.00 0.00 21 1014.1
20260506202819 82 92 2.6 9.6 0.00 0.00 0.00 21 1014.1
20260506202328 82 178 7.8 10.4 0.00 0.00 0.00 22 1014.2
20260506201819 81 165 3.5 11.3 0.00 0.00 0.00 22 1014.2
20260506201330 81 260 7.8 11.3 0.00 0.00 0.00 22 1014.2
20260506200822 81 160 0.9 5.2 0.00 0.00 0.00 23 1014.3
20260506200313 80 32 2.6 5.2 0.00 0.00 0.00 23 1014.4
20260506195822 80 99 2.6 8.7 0.00 0.00 0.00 23 1014.5
20260506195317 80 20 6.1 8.7 0.00 0.00 0.00 23 1014.7
20260506194850 81 300 1.7 9.6 0.00 0.00 0.00 23 1014.7
20260506194321 81 192 5.2 9.6 0.00 0.00 0.00 24 1014.7
20260506193814 80 167 2.6 8.7 0.00 0.00 0.00 24 1014.8
20260506193325 80 273 3.5 8.7 0.00 0.00 0.00 24 1014.8
20260506192818 79 250 2.6 7.0 0.00 0.00 0.00 24 1014.9
20260506192349 79 228 2.6 7.0 0.00 0.00 0.00 24 1014.9
20260506191820 79 191 4.3 8.7 0.00 0.00 0.00 24 1015.0
20260506191331 79 212 4.3 8.7 0.00 0.00 0.00 23 1015.1
20260506190844 79 223 1.7 10.4 0.00 0.00 0.00 23 1015.0
20260506190317 80 167 4.3 10.4 0.00 0.00 0.00 25 1015.0
20260506185827 79 168 5.2 7.8 0.00 0.00 0.00 25 1015.1
20260506185317 78 225 1.7 6.1 0.00 0.00 0.00 25 1015.2
20260506184830 77 306 1.7 6.1 0.00 0.00 0.00 25 1015.3
20260506184321 77 208 1.7 6.1 0.00 0.00 0.00 26 1015.4
20260506183854 77 263 3.5 7.8 0.00 0.00 0.00 26 1015.5
20260506183324 76 286 5.2 8.7 0.00 0.00 0.00 27 1015.5
20260506182818 76 216 5.2 8.7 0.00 0.00 0.00 27 1015.6
20260506182330 76 150 1.7 8.7 0.00 0.00 0.00 27 1015.6
20260506181826 76 254 5.2 9.6 0.00 0.00 0.00 28 1015.6
20260506181315 76 248 5.2 9.6 0.00 0.00 0.00 28 1015.6
20260506180828 75 276 7.0 9.6 0.00 0.00 0.00 28 1015.6
20260506180318 76 249 7.0 11.3 0.00 0.00 0.00 28 1015.6
20260506175828 75 259 7.0 10.4 0.00 0.00 0.00 28 1015.6
20260506175319 75 311 7.0 10.4 0.00 0.00 0.00 29 1015.6
20260506174831 74 270 4.3 11.3 0.00 0.00 0.00 30 1015.6
20260506174320 74 275 8.7 12.2 0.00 0.00 0.00 30 1015.6
20260506173851 73 276 9.6 12.2 0.00 0.00 0.00 31 1015.6
20260506173321 73 261 8.7 12.2 0.00 0.00 0.00 31 1015.6
20260506172817 73 293 8.7 13.0 0.00 0.00 0.00 32 1015.6
20260506172329 72 248 10.4 13.9 0.00 0.00 0.00 32 1015.6
20260506171822 72 253 8.7 13.9 0.00 0.00 0.00 33 1015.6
20260506171353 72 265 8.7 12.2 0.00 0.00 0.00 33 1015.7
20260506170825 72 313 7.8 12.2 0.00 0.00 0.00 34 1015.6
20260506170316 71 252 8.7 12.2 0.00 0.00 0.00 34 1015.6
20260506165826 71 275 8.7 11.3 0.00 0.00 0.00 34 1015.6
20260506165318 71 273 8.7 13.9 0.00 0.00 0.00 34 1015.6
20260506164830 70 269 10.4 13.9 0.00 0.00 0.00 35 1015.6
20260506164325 70 275 11.3 15.6 0.00 0.00 0.00 35 1015.6
20260506163836 70 252 10.4 15.6 0.00 0.00 0.00 36 1015.6
20260506163325 70 249 10.4 18.2 0.00 0.00 0.00 36 1015.6
20260506162817 69 244 10.4 18.2 0.00 0.00 0.00 37 1015.5
20260506162328 69 269 13.0 18.2 0.00 0.00 0.00 38 1015.4
20260506161819 69 255 13.0 16.5 0.00 0.00 0.00 38 1015.4
20260506161328 68 275 13.0 18.2 0.00 0.00 0.00 39 1015.4
20260506160820 68 253 13.0 18.2 0.00 0.00 0.00 39 1015.4
20260506160331 68 281 12.2 18.2 0.00 0.00 0.00 39 1015.4
20260506155821 68 280 12.2 18.2 0.00 0.00 0.00 39 1015.4
20260506155315 67 268 13.0 17.4 0.00 0.00 0.00 39 1015.3
20260506154848 67 290 13.0 20.9 0.00 0.00 0.00 40 1015.2
20260506154314 66 288 13.9 18.2 0.00 0.00 0.00 40 1015.2
20260506153826 66 294 13.9 19.1 0.00 0.00 0.00 41 1015.2
20260506153337 66 286 15.6 20.0 0.00 0.00 0.00 40 1015.3
20260506152828 66 290 13.9 18.2 0.00 0.00 0.00 41 1015.3
20260506152320 66 304 13.9 18.2 0.00 0.00 0.00 41 1015.3
20260506151813 65 276 12.2 17.4 0.00 0.00 0.00 41 1015.2
20260506151344 65 257 13.9 17.4 0.00 0.00 0.00 42 1015.2
20260506150835 65 285 13.0 17.4 0.00 0.00 0.00 43 1015.2
20260506150326 64 266 13.9 18.2 0.00 0.00 0.00 43 1015.2
20260506145840 64 261 13.9 18.2 0.00 0.00 0.00 44 1015.2
20260506145331 64 291 13.9 16.5 0.00 0.00 0.00 44 1015.2
20260506144824 63 289 13.0 17.4 0.00 0.00 0.00 45 1015.2
20260506144332 63 291 13.9 17.4 0.00 0.00 0.00 45 1015.1
20260506143825 63 281 12.2 15.6 0.00 0.00 0.00 46 1015.1
20260506143314 62 291 13.0 15.6 0.00 0.00 0.00 46 1015.0
20260506142826 62 302 12.2 16.5 0.00 0.00 0.00 46 1015.0
20260506142317 62 281 12.2 16.5 0.00 0.00 0.00 46 1015.0
20260506141831 62 265 13.0 17.4 0.00 0.00 0.00 46 1014.9
20260506141322 61 270 13.9 15.6 0.00 0.00 0.00 48 1014.8
20260506140819 61 265 9.6 13.0 0.00 0.00 0.00 49 1014.8
20260506140331 60 304 9.6 13.0 0.00 0.00 0.00 49 1014.9
20260506135821 60 297 8.7 12.2 0.00 0.00 0.00 50 1014.8
20260506135313 59 311 8.7 13.0 0.00 0.00 0.00 50 1014.7
20260506134828 59 304 11.3 13.9 0.00 0.00 0.00 51 1014.7
20260506134319 58 304 10.4 14.8 0.00 0.00 0.00 52 1014.5
20260506133832 58 292 11.3 14.8 0.00 0.00 0.00 53 1014.5
20260506133344 57 280 9.6 12.2 0.00 0.00 0.00 54 1014.4
20260506132820 57 297 10.4 13.9 0.00 0.00 0.00 54 1014.4
20260506132332 57 298 10.4 13.9 0.00 0.00 0.00 55 1014.4
20260506131825 56 302 9.6 12.2 0.00 0.00 0.00 56 1014.4
20260506131316 56 306 9.6 11.3 0.00 0.00 0.00 56 1014.3
20260506130848 56 311 8.7 10.4 0.00 0.00 0.00 57 1014.3
20260506130317 55 281 7.8 10.4 0.00 0.00 0.00 57 1014.2
20260506125827 55 308 9.6 10.4 0.00 0.00 0.00 57 1014.2
20260506125318 55 298 8.7 11.3 0.00 0.00 0.00 57 1014.1
20260506124830 56 311 8.7 11.3 0.00 0.00 0.00 57 1014.2
20260506124326 55 298 8.7 11.3 0.00 0.00 0.00 57 1014.1
20260506123839 55 309 8.7 11.3 0.00 0.00 0.00 58 1014.1
20260506123330 56 312 8.7 11.3 0.00 0.00 0.00 56 1014.0
20260506122824 56 304 9.6 13.9 0.00 0.00 0.00 56 1014.0
20260506122336 56 299 11.3 13.9 0.00 0.00 0.00 57 1014.0
20260506121828 56 277 10.4 13.9 0.00 0.00 0.00 58 1013.9
20260506121339 56 276 11.3 13.9 0.00 0.00 0.00 58 1013.9
20260506120850 56 273 11.3 14.8 0.00 0.00 0.00 58 1013.8
20260506120319 56 274 11.3 14.8 0.00 0.00 0.00 58 1013.7
20260506115848 57 290 11.3 15.6 0.00 0.00 0.00 57 1013.8
20260506115318 57 290 12.2 15.6 0.00 0.00 0.00 57 1013.7
20260506114830 57 273 13.0 15.6 0.00 0.00 0.00 57 1013.7
20260506114326 57 275 12.2 15.6 0.00 0.00 0.00 57 1013.6
20260506113818 57 263 10.4 13.9 0.00 0.00 0.00 57 1013.7
20260506113330 57 268 10.4 13.9 0.00 0.00 0.00 57 1013.7
20260506112843 57 267 11.3 14.8 0.00 0.00 0.00 56 1013.6
20260506112334 57 282 12.2 14.8 0.00 0.00 0.00 56 1013.6
20260506111825 57 302 11.3 14.8 0.00 0.00 0.00 56 1013.6
20260506111336 57 294 11.3 14.8 0.00 0.00 0.00 57 1013.6
20260506110829 57 277 10.4 13.9 0.00 0.00 0.00 57 1013.6
20260506110321 57 271 9.6 13.0 0.00 0.00 0.00 57 1013.6
20260506105831 57 275 11.3 13.9 0.00 0.00 0.00 57 1013.6
20260506105327 57 284 10.4 13.9 0.00 0.00 0.00 57 1013.7
20260506104821 57 292 10.4 12.2 0.00 0.00 0.00 57 1013.6
20260506104332 57 294 9.6 13.9 0.00 0.00 0.00 57 1013.7
20260506103825 57 273 10.4 14.8 0.00 0.00 0.00 57 1013.6
20260506103316 57 293 11.3 14.8 0.00 0.00 0.00 56 1013.6
20260506102830 58 277 11.3 14.8 0.00 0.00 0.00 57 1013.5
20260506102322 57 284 11.3 14.8 0.00 0.00 0.00 57 1013.4